COSMOS 2129

Satellite information

Favourite Embed

Satellite Type and Status

PAYLOADIN ORBIT

Key statistics

Satellite COSMOS 2129 at a glance.

Uptime

12723

Days in orbit

Revolutions

≈ 12.5

Per day

Orbit

LEO

Low Earth Orbit

Inclination

74.0

Latest

Satellite identification and parameters

Extended collection of information and parameters for COSMOS 2129.

Object identification

Identified? True

Debris? False

Object name: COSMOS 2129

International designator: 1991-009E

Object number (NORAD): 21104

Object ID (CCSDS): 21104

Country: COMMONWEALTH OF INDEPENDENT STATES (CIS)

Current information (Y/N): Y

RCS size: MEDIUM

Orbital parameters

Period: 114.856 minutes

Inclination: 74.0307 deg

SMA: 7827.025 km

Apoapsis: 1469.031 km

Periapsis: 1428.748 km

RAAN: 89.4716 deg

Eccentricy: 0.00257333

Argument of periapsis: 292.5772 deg

Mean anomaly: 95.0792 deg

Mean motion: 12.53740611 rev/day

Mean motion (dot): 0.00000001 rev/day2

B* drag term: 0.000105961 1/REarth

Two-line elements (TLE)

Creation date: Dec. 12, 2025, 10:14 a.m.

Reference frame: TEME

Reference center: EARTH

Epoch: Dec. 12, 2025, 6:08 a.m. UTC

TLE line 0: 0 COSMOS 2129

TLE line 1: 1 21104U 91009E 25346.25606405 .00000001 00000-0 10596-3 0 9990

TLE line 2: 2 21104 74.0307 89.4716 0025733 292.5772 95.0792 12.53740611594099

Live tracking on map

Real-time ground track for satellite COSMOS 2129.

In-orbit conjunctions

There are no conjunctions computed for COSMOS 2129, at the moment. Check back to stay up to date, as we update our databases every day.

Go to all conjunctions

Associated space launch

Military communications satellites

COSMOS 2129 was lifted into orbit during the mission ‘Kosmos-3M | Strela-1M 353-360’, on board a Kosmos-3M space rocket.

The launch took place on Feb. 12, 1991, 2:44 a.m. from 133/3 (133L).

For more information about the launch, click the button.

Launch to space Kosmos-3M | Strela-1M 353-360
Kosmos-3M | Strela-1M 353-360

Agency: N/A

Status: Launch Successful

Launch date: Feb. 12, 1991, 2:44 a.m. UTC

Rocket: Kosmos-3M

Launch pad: 133/3 (133L)

Location: Plesetsk Cosmodrome, Russian Federation

...

Latest news about this satellite

There are no fresh news available about this satellite. Check back as we update our databases every day.


Newsletter sign-up

Weekly statistics, charts and insights to help you stay on top of the space industry.